| time (UTC) | temp C | wind direction | speed KPH | gust KPH | rain 1hr cm | rain 24hr cm | rain mn cm | humidity % | barometer mb |
| 20260504012627 | 13 | 137 | 0.0 | 0.0 | 0.00 | 0.00 | 0.00 | 40 | 1000.0 |
| 20260504012125 | 13 | 130 | 0.0 | 0.0 | 0.00 | 0.00 | 0.00 | 40 | 1000.3 |
| 20260504011622 | 15 | 134 | 0.0 | 0.0 | 0.00 | 0.00 | 0.00 | 39 | 1000.4 |
| 20260504011118 | 15 | 154 | 0.0 | 0.0 | 0.00 | 0.00 | 0.00 | 35 | 1000.6 |
| 20260504010614 | 15 | 164 | 3.2 | 4.8 | 0.00 | 0.00 | 0.00 | 34 | 1000.7 |
| 20260504010110 | 15 | 169 | 0.0 | 3.2 | 0.00 | 0.00 | 0.00 | 34 | 1000.9 |
| 20260504005607 | 16 | 184 | 3.2 | 4.8 | 0.00 | 0.00 | 0.00 | 32 | 1000.9 |
| 20260504005104 | 16 | 197 | 3.2 | 4.8 | 0.00 | 0.00 | 0.00 | 31 | 1000.9 |
| 20260504004602 | 16 | 183 | 3.2 | 3.2 | 0.00 | 0.00 | 0.00 | 32 | 1001.0 |
| 20260504004059 | 16 | 174 | 9.7 | 12.9 | 0.00 | 0.00 | 0.00 | 31 | 1000.9 |
| 20260504003555 | 16 | 195 | 4.8 | 4.8 | 0.00 | 0.00 | 0.00 | 30 | 1001.2 |
| 20260504003052 | 16 | 217 | 6.4 | 6.4 | 0.00 | 0.00 | 0.00 | 31 | 1001.5 |
| 20260504002549 | 16 | 215 | 6.4 | 9.7 | 0.00 | 0.00 | 0.00 | 31 | 1001.3 |
| 20260504002047 | 16 | 228 | 4.8 | 4.8 | 0.00 | 0.00 | 0.00 | 31 | 1001.4 |
| 20260504001544 | 16 | 220 | 9.7 | 12.9 | 0.00 | 0.00 | 0.00 | 31 | 1001.5 |
| 20260504001040 | 17 | 222 | 3.2 | 4.8 | 0.00 | 0.00 | 0.00 | 31 | 1001.8 |
| 20260504000537 | 17 | 272 | 3.2 | 6.4 | 0.00 | 0.00 | 0.00 | 30 | 1001.8 |
| 20260504000035 | 17 | 221 | 4.8 | 6.4 | 0.00 | 0.00 | 0.00 | 32 | 1002.0 |
| 20260503235533 | 17 | 238 | 6.4 | 9.7 | 0.00 | 0.00 | 0.00 | 31 | 1001.8 |
| 20260503235029 | 17 | 212 | 3.2 | 4.8 | 0.00 | 0.00 | 0.00 | 31 | 1002.0 |
| 20260503234527 | 17 | 190 | 4.8 | 4.8 | 0.00 | 0.00 | 0.00 | 30 | 1002.1 |
| 20260503234026 | 17 | 231 | 3.2 | 4.8 | 0.00 | 0.00 | 0.00 | 31 | 1002.1 |
| 20260503233521 | 18 | 227 | 8.0 | 12.9 | 0.00 | 0.00 | 0.00 | 29 | 1002.2 |
| 20260503233017 | 18 | 228 | 8.0 | 9.7 | 0.00 | 0.00 | 0.00 | 32 | 1002.2 |
| 20260503232514 | 17 | 223 | 3.2 | 3.2 | 0.00 | 0.00 | 0.00 | 31 | 1002.3 |
| 20260503232012 | 17 | 177 | 3.2 | 6.4 | 0.00 | 0.00 | 0.00 | 32 | 1002.3 |
| 20260503231510 | 17 | 221 | 1.6 | 3.2 | 0.00 | 0.00 | 0.00 | 33 | 1002.5 |
| 20260503231006 | 17 | 215 | 4.8 | 6.4 | 0.00 | 0.00 | 0.00 | 31 | 1002.4 |
| 20260503230503 | 17 | 210 | 6.4 | 12.9 | 0.00 | 0.00 | 0.00 | 32 | 1002.5 |
| 20260503230000 | 17 | 197 | 8.0 | 11.3 | 0.00 | 0.00 | 0.00 | 31 | 1002.5 |
| 20260503225457 | 17 | 178 | 4.8 | 4.8 | 0.00 | 0.00 | 0.00 | 32 | 1002.8 |
| 20260503224952 | 17 | 240 | 11.3 | 14.5 | 0.00 | 0.00 | 0.00 | 31 | 1002.6 |
| 20260503224450 | 17 | 202 | 8.0 | 11.3 | 0.00 | 0.00 | 0.00 | 32 | 1002.6 |
| 20260503223947 | 17 | 192 | 6.4 | 12.9 | 0.00 | 0.00 | 0.00 | 31 | 1002.8 |
| 20260503223445 | 17 | 205 | 9.7 | 16.1 | 0.00 | 0.00 | 0.00 | 32 | 1002.9 |
| 20260503222941 | 17 | 193 | 3.2 | 6.4 | 0.00 | 0.00 | 0.00 | 31 | 1002.8 |
| 20260503222439 | 17 | 249 | 4.8 | 4.8 | 0.00 | 0.00 | 0.00 | 30 | 1002.9 |
| 20260503221937 | 18 | 239 | 3.2 | 6.4 | 0.00 | 0.00 | 0.00 | 30 | 1003.2 |
| 20260503221435 | 18 | 295 | 8.0 | 9.7 | 0.00 | 0.00 | 0.00 | 30 | 1003.0 |
| 20260503220932 | 18 | 226 | 14.5 | 17.7 | 0.00 | 0.00 | 0.00 | 30 | 1002.9 |
| 20260503220428 | 18 | 230 | 9.7 | 12.9 | 0.00 | 0.00 | 0.00 | 31 | 1003.1 |
| 20260503215925 | 18 | 203 | 6.4 | 6.4 | 0.00 | 0.00 | 0.00 | 31 | 1003.0 |
| 20260503215422 | 17 | 247 | 8.0 | 14.5 | 0.00 | 0.00 | 0.00 | 30 | 1003.1 |
| 20260503214920 | 17 | 196 | 17.7 | 20.9 | 0.00 | 0.00 | 0.00 | 30 | 1003.0 |
| 20260503214417 | 18 | 264 | 9.7 | 12.9 | 0.00 | 0.00 | 0.00 | 31 | 1003.0 |
| 20260503213914 | 17 | 184 | 12.9 | 17.7 | 0.00 | 0.00 | 0.00 | 31 | 1003.2 |
| 20260503213412 | 18 | 192 | 17.7 | 24.1 | 0.00 | 0.00 | 0.00 | 31 | 1003.0 |
| 20260503212908 | 18 | 238 | 6.4 | 6.4 | 0.00 | 0.00 | 0.00 | 31 | 1003.3 |
| 20260503212406 | 18 | 246 | 11.3 | 14.5 | 0.00 | 0.00 | 0.00 | 33 | 1003.1 |
| 20260503211903 | 19 | 233 | 8.0 | 9.7 | 0.00 | 0.00 | 0.00 | 30 | 1003.2 |
| 20260503211400 | 18 | 251 | 3.2 | 6.4 | 0.00 | 0.00 | 0.00 | 30 | 1003.1 |
| 20260503210855 | 18 | 162 | 11.3 | 20.9 | 0.00 | 0.00 | 0.00 | 31 | 1003.3 |
| 20260503210353 | 18 | 244 | 6.4 | 6.4 | 0.00 | 0.00 | 0.00 | 32 | 1003.3 |
| 20260503205847 | 18 | 270 | 6.4 | 11.3 | 0.00 | 0.00 | 0.00 | 33 | 1003.3 |
| 20260503205344 | 17 | 217 | 8.0 | 11.3 | 0.00 | 0.00 | 0.00 | 30 | 1003.0 |
| 20260503204841 | 17 | 251 | 9.7 | 12.9 | 0.00 | 0.00 | 0.00 | 30 | 1003.4 |
| 20260503204338 | 18 | 185 | 6.4 | 11.3 | 0.00 | 0.00 | 0.00 | 33 | 1003.4 |
| 20260503203835 | 18 | 205 | 9.7 | 12.9 | 0.00 | 0.00 | 0.00 | 33 | 1003.5 |
| 20260503203333 | 17 | 236 | 3.2 | 3.2 | 0.00 | 0.00 | 0.00 | 34 | 1003.6 |
| 20260503202829 | 17 | 196 | 14.5 | 17.7 | 0.00 | 0.00 | 0.00 | 30 | 1003.5 |
| 20260503202328 | 17 | 212 | 12.9 | 20.9 | 0.00 | 0.00 | 0.00 | 33 | 1004.0 |
| 20260503201826 | 17 | 234 | 4.8 | 9.7 | 0.00 | 0.00 | 0.00 | 29 | 1004.0 |
| 20260503201322 | 17 | 204 | 9.7 | 14.5 | 0.00 | 0.00 | 0.00 | 34 | 1003.8 |
| 20260503200820 | 17 | 227 | 9.7 | 12.9 | 0.00 | 0.00 | 0.00 | 31 | 1003.9 |
| 20260503200315 | 17 | 265 | 8.0 | 11.3 | 0.00 | 0.00 | 0.00 | 31 | 1003.9 |
| 20260503195813 | 17 | 220 | 9.7 | 11.3 | 0.00 | 0.00 | 0.00 | 30 | 1003.9 |
| 20260503195309 | 17 | 204 | 11.3 | 17.7 | 0.00 | 0.00 | 0.00 | 33 | 1004.0 |
| 20260503194807 | 17 | 217 | 9.7 | 14.5 | 0.00 | 0.00 | 0.00 | 32 | 1004.2 |
| 20260503194302 | 17 | 299 | 8.0 | 12.9 | 0.00 | 0.00 | 0.00 | 30 | 1004.1 |
| 20260503193759 | 17 | 290 | 6.4 | 11.3 | 0.00 | 0.00 | 0.00 | 30 | 1004.2 |
| 20260503193255 | 17 | 194 | 3.2 | 6.4 | 0.00 | 0.00 | 0.00 | 30 | 1004.2 |
| 20260503192751 | 17 | 292 | 8.0 | 11.3 | 0.00 | 0.00 | 0.00 | 33 | 1004.5 |
| 20260503192246 | 17 | 259 | 12.9 | 17.7 | 0.00 | 0.00 | 0.00 | 30 | 1004.4 |
| 20260503191743 | 17 | 211 | 9.7 | 16.1 | 0.00 | 0.00 | 0.00 | 32 | 1004.5 |
| 20260503191240 | 16 | 261 | 4.8 | 6.4 | 0.00 | 0.00 | 0.00 | 37 | 1004.4 |
| 20260503190737 | 16 | 255 | 3.2 | 4.8 | 0.00 | 0.00 | 0.00 | 34 | 1004.5 |
| 20260503190234 | 16 | 220 | 8.0 | 11.3 | 0.00 | 0.00 | 0.00 | 31 | 1004.9 |
| 20260503185731 | 16 | 179 | 3.2 | 4.8 | 0.00 | 0.00 | 0.00 | 30 | 1004.6 |
| 20260503185226 | 16 | 309 | 9.7 | 14.5 | 0.00 | 0.00 | 0.00 | 32 | 1004.9 |
| 20260503184721 | 17 | 256 | 6.4 | 9.7 | 0.00 | 0.00 | 0.00 | 32 | 1004.8 |
| 20260503184218 | 16 | 270 | 8.0 | 11.3 | 0.00 | 0.00 | 0.00 | 30 | 1005.0 |
| 20260503183714 | 16 | 225 | 4.8 | 6.4 | 0.00 | 0.00 | 0.00 | 32 | 1005.0 |
| 20260503183212 | 16 | 317 | 8.0 | 11.3 | 0.00 | 0.00 | 0.00 | 31 | 1005.1 |
| 20260503182710 | 16 | 190 | 14.5 | 25.7 | 0.00 | 0.00 | 0.00 | 30 | 1004.8 |
| 20260503182208 | 15 | 289 | 3.2 | 4.8 | 0.00 | 0.00 | 0.00 | 34 | 1004.9 |
| 20260503181704 | 15 | 243 | 6.4 | 6.4 | 0.00 | 0.00 | 0.00 | 33 | 1005.2 |
| 20260503181201 | 15 | 138 | 3.2 | 4.8 | 0.00 | 0.00 | 0.00 | 31 | 1005.3 |
| 20260503180658 | 15 | 239 | 12.9 | 14.5 | 0.00 | 0.00 | 0.00 | 31 | 1005.1 |
| 20260503180156 | 15 | 286 | 9.7 | 14.5 | 0.00 | 0.00 | 0.00 | 30 | 1005.2 |
| 20260503175653 | 15 | 253 | 3.2 | 4.8 | 0.00 | 0.00 | 0.00 | 31 | 1005.2 |
| 20260503175150 | 16 | 257 | 4.8 | 6.4 | 0.00 | 0.00 | 0.00 | 30 | 1005.2 |
| 20260503174646 | 16 | 301 | 3.2 | 4.8 | 0.00 | 0.00 | 0.00 | 31 | 1005.2 |
| 20260503174144 | 15 | 171 | 3.2 | 3.2 | 0.00 | 0.00 | 0.00 | 30 | 1005.4 |
| 20260503173639 | 15 | 300 | 9.7 | 14.5 | 0.00 | 0.00 | 0.00 | 27 | 1005.5 |
| 20260503173135 | 15 | 204 | 6.4 | 11.3 | 0.00 | 0.00 | 0.00 | 28 | 1005.4 |
| 20260503172632 | 15 | 260 | 4.8 | 6.4 | 0.00 | 0.00 | 0.00 | 28 | 1005.6 |
| 20260503172130 | 14 | 245 | 14.5 | 20.9 | 0.00 | 0.00 | 0.00 | 35 | 1005.5 |
| 20260503171626 | 15 | 236 | 9.7 | 16.1 | 0.00 | 0.00 | 0.00 | 27 | 1005.9 |
| 20260503171123 | 15 | 229 | 8.0 | 11.3 | 0.00 | 0.00 | 0.00 | 28 | 1005.7 |
| 20260503170621 | 15 | 216 | 8.0 | 9.7 | 0.00 | 0.00 | 0.00 | 31 | 1005.7 |
| 20260503170117 | 15 | 285 | 4.8 | 9.7 | 0.00 | 0.00 | 0.00 | 28 | 1005.7 |
| 20260503151012 | 12 | 254 | 8.0 | 12.9 | 0.00 | 0.00 | 0.00 | 39 | 1005.5 |
| 20260503150509 | 12 | 249 | 8.0 | 12.9 | 0.00 | 0.00 | 0.00 | 45 | 1005.6 |
| 20260503131356 | 8 | 249 | 6.4 | 11.3 | 0.00 | 0.00 | 0.00 | 84 | 1005.2 |
| 20260503130853 | 8 | 242 | 6.4 | 9.7 | 0.00 | 0.00 | 0.00 | 84 | 1005.3 |
| 20260503130351 | 8 | 250 | 6.4 | 6.4 | 0.00 | 0.00 | 0.00 | 85 | 1005.4 |
| 20260503110744 | 0 | 182 | 0.0 | 0.0 | 0.00 | 0.00 | 0.00 | 99 | 1004.7 |
| 20260503110241 | 0 | 182 | 0.0 | 0.0 | 0.00 | 0.00 | 0.00 | 99 | 1004.8 |
| 20260503100208 | 1 | 282 | 0.0 | 0.0 | 0.00 | 0.00 | 0.00 | 99 | 1004.9 |
| 20260503090132 | 2 | 115 | 0.0 | 0.0 | 0.00 | 0.00 | 0.00 | 99 | 1005.4 |
| 20260503081602 | 4 | 77 | 0.0 | 0.0 | 0.00 | 0.00 | 0.00 | 99 | 1005.3 |
| 20260503081059 | 4 | 304 | 0.0 | 1.6 | 0.00 | 0.00 | 0.00 | 99 | 1005.6 |
| 20260503080555 | 5 | 116 | 0.0 | 0.0 | 0.00 | 0.00 | 0.00 | 99 | 1005.4 |
| 20260503072529 | 6 | 281 | 0.0 | 0.0 | 0.00 | 0.00 | 0.00 | 99 | 1005.7 |
| 20260503072026 | 6 | 303 | 0.0 | 1.6 | 0.00 | 0.00 | 0.00 | 99 | 1005.9 |
| 20260503071523 | 6 | 311 | 0.0 | 0.0 | 0.00 | 0.00 | 0.00 | 99 | 1005.8 |
| 20260503071020 | 6 | 311 | 0.0 | 0.0 | 0.00 | 0.00 | 0.00 | 98 | 1005.7 |
| 20260503070516 | 6 | 311 | 0.0 | 0.0 | 0.00 | 0.00 | 0.00 | 98 | 1005.8 |
| 20260503054940 | 8 | 295 | 1.6 | 1.6 | 0.00 | 0.00 | 0.00 | 99 | 1006.6 |
| 20260503054436 | 7 | 107 | 0.0 | 0.0 | 0.00 | 0.00 | 0.00 | 99 | 1006.5 |
| 20260503053934 | 7 | 93 | 0.0 | 0.0 | 0.00 | 0.00 | 0.00 | 99 | 1006.4 |
| 20260503053432 | 8 | 99 | 0.0 | 0.0 | 0.00 | 0.00 | 0.00 | 99 | 1006.6 |
| 20260503052928 | 8 | 78 | 0.0 | 0.0 | 0.00 | 0.00 | 0.00 | 99 | 1006.5 |
| 20260503052425 | 8 | 292 | 4.8 | 4.8 | 0.00 | 0.00 | 0.00 | 99 | 1006.5 |
| 20260503051921 | 8 | 297 | 1.6 | 3.2 | 0.00 | 0.00 | 0.00 | 95 | 1006.6 |
| 20260503051418 | 8 | 135 | 0.0 | 0.0 | 0.00 | 0.00 | 0.00 | 97 | 1006.7 |
| 20260503050915 | 8 | 127 | 0.0 | 0.0 | 0.00 | 0.00 | 0.00 | 94 | 1006.6 |
| 20260503050411 | 8 | 151 | 0.0 | 0.0 | 0.00 | 0.00 | 0.00 | 96 | 1006.7 |
| 20260503045908 | 7 | 103 | 0.0 | 0.0 | 0.00 | 0.05 | 0.05 | 98 | 1006.7 |
| 20260503045406 | 8 | 119 | 0.0 | 0.0 | 0.00 | 0.05 | 0.05 | 98 | 1006.7 |
| 20260503044903 | 8 | 98 | 0.0 | 0.0 | 0.00 | 0.05 | 0.05 | 97 | 1006.9 |
| 20260503044359 | 8 | 84 | 0.0 | 0.0 | 0.00 | 0.05 | 0.05 | 98 | 1006.8 |
| 20260503043856 | 8 | 81 | 0.0 | 0.0 | 0.13 | 0.05 | 0.05 | 98 | 1007.0 |
| 20260503043353 | 7 | 94 | 0.0 | 0.0 | 0.13 | 0.05 | 0.05 | 98 | 1007.0 |
| 20260503042849 | 8 | 94 | 0.0 | 0.0 | 0.00 | 0.03 | 0.03 | 97 | 1007.3 |
| 20260503042346 | 7 | 129 | 0.0 | 0.0 | 0.00 | 0.03 | 0.03 | 98 | 1007.3 |
| 20260503041842 | 7 | 59 | 0.0 | 0.0 | 0.00 | 0.03 | 0.03 | 98 | 1007.1 |
| 20260503041340 | 8 | 84 | 0.0 | 0.0 | 0.00 | 0.03 | 0.03 | 97 | 1007.2 |
| 20260503040837 | 8 | 84 | 0.0 | 0.0 | 0.00 | 0.03 | 0.03 | 96 | 1007.1 |
| 20260503040335 | 8 | 44 | 0.0 | 0.0 | 0.00 | 0.03 | 0.03 | 96 | 1007.3 |
| 20260503035831 | 8 | 91 | 0.0 | 0.0 | 0.00 | 0.03 | 0.03 | 97 | 1007.3 |
| 20260503035328 | 8 | 44 | 0.0 | 1.6 | 0.00 | 0.03 | 0.03 | 96 | 1007.3 |
| 20260503034826 | 8 | 53 | 1.6 | 1.6 | 0.00 | 0.03 | 0.03 | 96 | 1007.5 |
| 20260503034323 | 8 | 61 | 0.0 | 1.6 | 0.00 | 0.03 | 0.03 | 95 | 1007.3 |
| 20260503033820 | 8 | 23 | 0.0 | 1.6 | 0.00 | 0.03 | 0.03 | 96 | 1007.5 |
| 20260503033318 | 8 | 45 | 0.0 | 0.0 | 0.00 | 0.03 | 0.03 | 96 | 1007.7 |
| 20260503032815 | 8 | 57 | 1.6 | 1.6 | 0.00 | 0.03 | 0.03 | 96 | 1007.7 |
| 20260503032314 | 8 | 30 | 1.6 | 1.6 | 0.00 | 0.03 | 0.03 | 98 | 1007.6 |
| 20260503031811 | 8 | 42 | 1.6 | 1.6 | 0.00 | 0.03 | 0.03 | 97 | 1007.9 |
| 20260503031309 | 8 | 91 | 0.0 | 0.0 | 0.00 | 0.03 | 0.03 | 97 | 1008.1 |
| 20260503030805 | 8 | 31 | 0.0 | 0.0 | 0.00 | 0.03 | 0.03 | 96 | 1008.3 |
| 20260503030302 | 9 | 216 | 0.0 | 0.0 | 0.18 | 0.03 | 0.03 | 91 | 1008.5 |
| 20260503025758 | 9 | 216 | 0.0 | 0.0 | 0.18 | 0.03 | 0.03 | 90 | 1008.5 |
| 20260503025256 | 10 | 216 | 0.0 | 0.0 | 0.00 | 0.00 | 0.00 | 88 | 1008.6 |
| 20260503024752 | 10 | 216 | 0.0 | 0.0 | 0.00 | 0.00 | 0.00 | 84 | 1008.6 |
| 20260503024249 | 10 | 216 | 0.0 | 0.0 | 0.00 | 0.00 | 0.00 | 81 | 1008.5 |
| 20260503023746 | 10 | 216 | 0.0 | 0.0 | 0.00 | 0.00 | 0.00 | 81 | 1008.6 |
| 20260503023243 | 10 | 213 | 0.0 | 0.0 | 0.00 | 0.00 | 0.00 | 83 | 1008.4 |
| 20260503022739 | 10 | 122 | 0.0 | 0.0 | 0.00 | 0.00 | 0.00 | 82 | 1008.5 |
| 20260503022234 | 10 | 114 | 0.0 | 0.0 | 0.00 | 0.00 | 0.00 | 83 | 1008.3 |
| 20260503021731 | 10 | 112 | 0.0 | 0.0 | 0.00 | 0.00 | 0.00 | 77 | 1008.3 |
| 20260503021227 | 11 | 152 | 0.0 | 0.0 | 0.00 | 0.00 | 0.00 | 76 | 1008.4 |
| 20260503020725 | 11 | 232 | 0.0 | 0.0 | 0.00 | 0.00 | 0.00 | 73 | 1008.5 |
| 20260503020222 | 11 | 210 | 0.0 | 0.0 | 0.00 | 0.00 | 0.00 | 71 | 1008.4 |
| 20260503015719 | 11 | 181 | 0.0 | 0.0 | 0.00 | 0.00 | 0.00 | 71 | 1008.7 |
| 20260503015216 | 12 | 203 | 1.6 | 1.6 | 0.00 | 0.00 | 0.00 | 68 | 1008.9 |
| 20260503014711 | 12 | 256 | 0.0 | 1.6 | 0.00 | 0.00 | 0.00 | 66 | 1008.9 |
| 20260503014210 | 12 | 272 | 1.6 | 3.2 | 0.00 | 0.00 | 0.00 | 66 | 1008.7 |
| 20260503013707 | 12 | 289 | 3.2 | 3.2 | 0.00 | 0.00 | 0.00 | 64 | 1008.9 |
| 20260503013205 | 12 | 254 | 3.2 | 4.8 | 0.00 | 0.00 | 0.00 | 63 | 1008.7 |
| 20260503012702 | 13 | 209 | 8.0 | 12.9 | 0.00 | 0.00 | 0.00 | 59 | 1008.9 |